FW1585 Weather Reports


Display with metric or nautical units.
time (UTC)temp
F
wind
direction
speed
MPH
gust
MPH
rain 1hr
in
rain 24hr
in
rain mn
in
humidity
%
barometer
mb
20260906203012 77 169 2.0 6.0 0.00 0.00 0.00 79 1006.7
20260906201508 75 209 4.0 9.0 0.00 0.00 0.00 82 1006.3
20260906200008 74 227 6.0 12.0 0.00 0.00 0.00 83 1006.2
20260906194507 74 248 8.0 11.0 0.00 0.00 0.00 83 1006.6
20260906193007 74 240 8.0 13.0 0.00 0.00 0.00 82 1007.1
20260906191506 74 249 6.0 11.0 0.00 0.00 0.00 79 1007.5
20260906190006 75 219 9.0 12.0 0.00 0.00 0.00 76 1007.7
20260906184508 75 217 9.0 16.0 0.00 0.00 0.00 75 1007.7
20260906183005 76 225 9.0 15.0 0.00 0.00 0.00 75 1007.2
20260906181602 76 219 13.0 18.0 0.00 0.00 0.00 75 1007.5
20260906180106 77 231 12.0 22.0 0.00 0.00 0.00 74 1007.6
20260906174603 78 232 14.0 25.0 0.00 0.00 0.00 77 1007.7
20260906173051 78 209 12.0 20.0 0.00 0.00 0.00 82 1007.5
20260906171549 78 206 11.0 18.0 0.00 0.00 0.00 87 1007.6
20260906170052 78 148 13.0 20.0 0.00 0.00 0.00 88 1007.9
20260906164550 78 165 9.0 20.0 0.00 0.00 0.00 89 1008.1
20260906163046 78 163 10.0 17.0 0.00 0.00 0.00 89 1008.2
20260906161547 78 175 9.0 16.0 0.00 0.00 0.00 89 1007.9
20260906160043 77 149 7.0 12.0 0.00 0.00 0.00 90 1007.6
20260906154547 77 144 6.0 12.0 0.00 0.00 0.00 89 1007.3
20260906153047 77 124 9.0 16.0 0.00 0.00 0.00 89 1007.3
20260906151540 77 133 8.0 13.0 0.00 0.00 0.00 89 1007.0
20260906150053 77 132 6.0 9.0 0.00 0.00 0.00 90 1007.0
20260906144537 76 115 6.0 10.0 0.00 0.00 0.00 92 1007.2
20260906143033 74 114 6.0 10.0 0.00 0.00 0.00 93 1007.2
20260906141529 73 115 5.0 8.0 0.00 0.00 0.00 93 1007.2
20260906140034 73 76 5.0 8.0 0.00 0.00 0.00 94 1007.2
20260906134522 71 35 3.0 6.0 0.00 0.00 0.00 94 1007.7
20260906133024 70 327 3.0 5.0 0.00 0.00 0.00 94 1007.9
20260906131517 70 274 1.0 2.0 0.00 0.00 0.00 94 1007.6
20260906130021 70 83 2.0 4.0 0.00 0.00 0.00 94 1007.2
20260906124513 69 227 0.0 2.0 0.00 0.00 0.00 94 1007.0
20260906123022 69 227 2.0 4.0 0.00 0.00 0.00 94 1007.0
20260906121510 68 87 3.0 4.0 0.00 0.00 0.00 94 1006.6
20260906120008 69 86 0.0 4.0 0.00 0.00 0.00 94 1006.7
20260906114510 68 111 2.0 4.0 0.00 0.00 0.00 94 1006.6
20260906113013 68 87 3.0 4.0 0.00 0.00 0.00 94 1006.4
20260906111507 68 85 3.0 5.0 0.00 0.00 0.00 94 1006.5
20260906110005 68 79 4.0 7.0 0.00 0.00 0.00 94 1006.4
20260906104510 68 69 3.0 5.0 0.00 0.00 0.00 93 1006.7
20260906103016 68 51 2.0 5.0 0.00 0.00 0.00 93 1006.8
20260906101505 68 34 2.0 3.0 0.00 0.00 0.00 93 1006.9
20260906100009 68 34 2.0 4.0 0.00 0.00 0.00 93 1007.3
20260906094502 69 109 0.0 1.0 0.00 0.00 0.00 93 1007.3
20260906093003 69 109 0.0 2.0 0.00 0.00 0.00 93 1007.0
20260906091601 69 109 0.0 2.0 0.00 0.00 0.00 93 1007.1
20260906090059 69 108 1.0 3.0 0.00 0.00 0.00 93 1006.9
20260906084601 69 105 2.0 3.0 0.00 0.00 0.00 93 1006.8
20260906083059 69 88 2.0 3.0 0.00 0.00 0.00 93 1006.7
20260906081558 69 88 2.0 4.0 0.00 0.00 0.00 93 1006.8
20260906080057 69 80 3.0 5.0 0.00 0.00 0.00 93 1006.5
20260906074554 69 84 3.0 6.0 0.00 0.00 0.00 93 1006.5
20260906073054 69 107 3.0 7.0 0.00 0.00 0.00 93 1006.5
20260906071552 69 97 3.0 7.0 0.00 0.00 0.00 93 1006.4
20260906070051 69 69 4.0 5.0 0.00 0.00 0.00 92 1006.5
20260906064550 69 80 4.0 5.0 0.00 0.00 0.00 92 1006.6
20260906063049 69 82 4.0 6.0 0.00 0.00 0.00 92 1006.5
20260906061552 69 96 2.0 4.0 0.00 0.00 0.00 92 1006.3
20260906060047 70 81 3.0 4.0 0.00 0.00 0.00 91 1006.3
20260906054601 70 81 2.0 5.0 0.00 0.00 0.00 91 1006.3
20260906053042 71 79 3.0 4.0 0.00 0.00 0.00 90 1005.9
20260906051539 71 103 2.0 4.0 0.00 0.00 0.00 89 1006.2
20260906050039 72 97 3.0 6.0 0.00 0.00 0.00 89 1006.3
20260906044538 73 133 5.0 9.0 0.00 0.00 0.00 88 1006.5
20260906043037 73 107 8.0 14.0 0.00 0.00 0.00 88 1006.2
20260906041536 73 84 8.0 12.0 0.00 0.00 0.00 88 1005.6
20260906040045 73 76 9.0 12.0 0.00 0.00 0.00 88 1005.5
20260906034547 73 82 9.0 12.0 0.00 0.00 0.00 87 1005.8
20260906033035 74 72 5.0 9.0 0.00 0.00 0.00 86 1006.2
20260906031600 74 80 6.0 9.0 0.00 0.00 0.00 85 1006.1
20260906030035 75 97 3.0 7.0 0.00 0.00 0.00 84 1006.4
20260906024553 75 87 4.0 7.0 0.00 0.00 0.00 84 1006.2
20260906023041 76 59 4.0 8.0 0.00 0.00 0.00 83 1006.3
20260906021533 76 98 5.0 8.0 0.00 0.00 0.00 83 1005.5
20260906020031 76 120 4.0 7.0 0.00 0.00 0.00 84 1005.5
20260906014532 77 129 1.0 3.0 0.00 0.00 0.00 82 1005.6
20260906013033 77 31 0.0 3.0 0.00 0.00 0.00 81 1005.8
20260906011533 77 48 2.0 4.0 0.00 0.00 0.00 82 1005.8
20260906010044 76 106 6.0 9.0 0.00 0.00 0.00 84 1005.6
20260906004530 77 103 2.0 3.0 0.00 0.00 0.00 82 1006.4
20260906003026 78 9 1.0 2.0 0.00 0.00 0.00 78 1006.8
20260906001529 79 101 0.0 1.0 0.00 0.00 0.00 76 1006.7
20260906000019 80 101 0.0 3.0 0.00 0.00 0.00 74 1006.5
20260905234512 81 104 2.0 7.0 0.00 0.00 0.00 72 1006.1
20260905233009 82 111 6.0 9.0 0.00 0.00 0.00 71 1005.7
20260905231507 83 94 6.0 10.0 0.00 0.00 0.00 69 1005.5
20260905230013 84 98 8.0 14.0 0.00 0.00 0.00 66 1005.2
20260905224515 86 109 10.0 20.0 0.00 0.00 0.00 61 1004.2
20260905223100 88 98 11.0 16.0 0.00 0.00 0.00 50 1004.0
20260905221556 89 113 9.0 14.0 0.00 0.00 0.00 51 1004.4
20260905220051 89 121 9.0 15.0 0.00 0.00 0.00 51 1004.6
20260905214551 89 114 11.0 14.0 0.00 0.00 0.00 51 1004.8
20260905213046 89 89 11.0 16.0 0.00 0.00 0.00 51 1005.0
20260905211558 89 88 9.0 13.0 0.00 0.00 0.00 51 1005.0
20260905210046 89 118 9.0 17.0 0.00 0.00 0.00 51 1005.1
20260905204539 89 94 11.0 15.0 0.00 0.00 0.00 51 1005.1